Year,Month,Day,Hour,Minute,Value (Times are PST for temperature in C)
2014,07,05,00,00,13.80
2014,07,05,00,01,13.80
2014,07,05,00,02,13.80
2014,07,05,00,03,13.80
2014,07,05,00,04,13.80
2014,07,05,00,05,13.80
2014,07,05,00,06,13.80
2014,07,05,00,07,13.80
2014,07,05,00,08,13.80
2014,07,05,00,09,13.80
2014,07,05,00,10,13.70
2014,07,05,00,11,13.70
2014,07,05,00,12,13.70
2014,07,05,00,13,13.70
2014,07,05,00,14,13.70
2014,07,05,00,15,13.70
2014,07,05,00,16,13.70
2014,07,05,00,17,13.70
2014,07,05,00,18,13.70
2014,07,05,00,19,13.70
2014,07,05,00,20,13.60
2014,07,05,00,21,13.60
2014,07,05,00,22,13.60
2014,07,05,00,23,13.60
2014,07,05,00,24,13.60
2014,07,05,00,25,13.70
2014,07,05,00,26,13.60
2014,07,05,00,27,13.70
2014,07,05,00,28,13.70
2014,07,05,00,29,13.70
2014,07,05,00,30,13.60
2014,07,05,00,31,13.60
2014,07,05,00,32,13.60
2014,07,05,00,33,13.60
2014,07,05,00,34,13.60
2014,07,05,00,35,13.60
2014,07,05,00,36,13.50
2014,07,05,00,37,13.50
2014,07,05,00,38,13.40
2014,07,05,00,39,13.40
2014,07,05,00,40,13.40
2014,07,05,00,41,13.40
2014,07,05,00,42,13.40
2014,07,05,00,43,13.40
2014,07,05,00,44,13.40
2014,07,05,00,45,13.40
2014,07,05,00,46,13.40
2014,07,05,00,47,13.30
2014,07,05,00,48,13.30
2014,07,05,00,49,13.30
2014,07,05,00,50,13.40
2014,07,05,00,51,13.40
2014,07,05,00,52,13.40
2014,07,05,00,53,13.30
2014,07,05,00,54,13.30
2014,07,05,00,55,13.30
2014,07,05,00,56,13.30
2014,07,05,00,57,13.30
2014,07,05,00,58,13.20
2014,07,05,00,59,13.20
2014,07,05,01,00,13.20
2014,07,05,01,01,13.10
2014,07,05,01,02,13.10
2014,07,05,01,03,13.10
2014,07,05,01,04,13.10
2014,07,05,01,05,13.10
2014,07,05,01,06,13.00
2014,07,05,01,07,13.00
2014,07,05,01,08,13.00
2014,07,05,01,09,13.00
2014,07,05,01,10,13.00
2014,07,05,01,11,13.00
2014,07,05,01,12,12.90
2014,07,05,01,13,12.90
2014,07,05,01,14,12.90
2014,07,05,01,15,12.90
2014,07,05,01,16,12.90
2014,07,05,01,17,12.90
2014,07,05,01,18,12.80
2014,07,05,01,19,12.80
2014,07,05,01,20,12.80
2014,07,05,01,21,12.80
2014,07,05,01,22,12.80
2014,07,05,01,23,12.80
2014,07,05,01,24,12.80
2014,07,05,01,25,12.80
2014,07,05,01,26,12.80
2014,07,05,01,27,12.70
2014,07,05,01,28,12.70
2014,07,05,01,29,12.70
2014,07,05,01,30,12.70
2014,07,05,01,31,12.70
2014,07,05,01,32,12.70
2014,07,05,01,33,12.70
2014,07,05,01,34,12.60
2014,07,05,01,35,12.60
2014,07,05,01,36,12.60
2014,07,05,01,37,12.60
2014,07,05,01,38,12.60
2014,07,05,01,39,12.60
2014,07,05,01,40,12.60
2014,07,05,01,41,12.60
2014,07,05,01,42,12.60
2014,07,05,01,43,12.60
2014,07,05,01,44,12.60
2014,07,05,01,45,12.60
2014,07,05,01,46,12.60
2014,07,05,01,47,12.60
2014,07,05,01,48,12.60
2014,07,05,01,49,12.60
2014,07,05,01,50,12.60
2014,07,05,01,51,12.60
2014,07,05,01,52,12.60
2014,07,05,01,53,12.60
2014,07,05,01,54,12.50
2014,07,05,01,55,12.50
2014,07,05,01,56,12.50
2014,07,05,01,57,12.50
2014,07,05,01,58,12.50
2014,07,05,01,59,12.50
2014,07,05,02,00,12.40
2014,07,05,02,01,12.40
2014,07,05,02,02,12.40
2014,07,05,02,03,12.40
2014,07,05,02,04,12.40
2014,07,05,02,05,12.40
2014,07,05,02,06,12.40
2014,07,05,02,07,12.40
2014,07,05,02,08,12.40
2014,07,05,02,09,12.40
2014,07,05,02,10,12.40
2014,07,05,02,11,12.40
2014,07,05,02,12,12.30
2014,07,05,02,13,12.30
2014,07,05,02,14,12.30
2014,07,05,02,15,12.20
2014,07,05,02,16,12.20
2014,07,05,02,17,12.10
2014,07,05,02,18,12.10
2014,07,05,02,19,12.10
2014,07,05,02,20,12.10
2014,07,05,02,21,12.10
2014,07,05,02,22,12.00
2014,07,05,02,23,12.00
2014,07,05,02,24,11.90
2014,07,05,02,25,11.90
2014,07,05,02,26,11.90
2014,07,05,02,27,11.90
2014,07,05,02,28,11.80
2014,07,05,02,29,11.80
2014,07,05,02,30,11.80
2014,07,05,02,31,11.80
2014,07,05,02,32,11.80
2014,07,05,02,33,11.80
2014,07,05,02,34,11.80
2014,07,05,02,35,11.80
2014,07,05,02,36,11.80
2014,07,05,02,37,11.80
2014,07,05,02,38,11.80
2014,07,05,02,39,11.80
2014,07,05,02,40,11.80
2014,07,05,02,41,11.80
2014,07,05,02,42,11.80
2014,07,05,02,43,11.70
2014,07,05,02,44,11.70
2014,07,05,02,45,11.70
2014,07,05,02,46,11.70
2014,07,05,02,47,11.70
2014,07,05,02,48,11.70
2014,07,05,02,49,11.80
2014,07,05,02,50,11.80
2014,07,05,02,51,11.70
2014,07,05,02,52,11.70
2014,07,05,02,53,11.70
2014,07,05,02,54,11.70
2014,07,05,02,55,11.70
2014,07,05,02,56,11.70
2014,07,05,02,57,11.70
2014,07,05,02,58,11.70
2014,07,05,02,59,11.70
2014,07,05,03,00,11.70
2014,07,05,03,01,11.70
2014,07,05,03,02,11.70
2014,07,05,03,03,11.70
2014,07,05,03,04,11.70
2014,07,05,03,05,11.70
2014,07,05,03,06,11.70
2014,07,05,03,07,11.60
2014,07,05,03,08,11.60
2014,07,05,03,09,11.60
2014,07,05,03,10,11.60
2014,07,05,03,11,11.60
2014,07,05,03,12,11.60
2014,07,05,03,13,11.60
2014,07,05,03,14,11.60
2014,07,05,03,15,11.70
2014,07,05,03,16,11.70
2014,07,05,03,17,11.70
2014,07,05,03,18,11.70
2014,07,05,03,19,11.70
2014,07,05,03,20,11.70
2014,07,05,03,21,11.70
2014,07,05,03,22,11.70
2014,07,05,03,23,11.70
2014,07,05,03,24,11.70
2014,07,05,03,25,11.70
2014,07,05,03,26,11.70
2014,07,05,03,27,11.70
2014,07,05,03,28,11.70
2014,07,05,03,29,11.80
2014,07,05,03,30,11.80
2014,07,05,03,31,11.80
2014,07,05,03,32,11.80
2014,07,05,03,33,11.80
2014,07,05,03,34,11.80
2014,07,05,03,35,11.80
2014,07,05,03,36,11.80
2014,07,05,03,37,11.80
2014,07,05,03,38,11.80
2014,07,05,03,39,11.80
2014,07,05,03,40,11.90
2014,07,05,03,41,11.90
2014,07,05,03,42,11.90
2014,07,05,03,43,11.90
2014,07,05,03,44,11.90
2014,07,05,03,45,11.90
2014,07,05,03,46,11.90
2014,07,05,03,47,11.90
2014,07,05,03,48,11.90
2014,07,05,03,49,11.90
2014,07,05,03,50,11.90
2014,07,05,03,51,12.00
2014,07,05,03,52,12.00
2014,07,05,03,53,12.00
2014,07,05,03,54,12.00
2014,07,05,03,55,12.00
2014,07,05,03,56,12.00
2014,07,05,03,57,12.10
2014,07,05,03,58,12.10
2014,07,05,03,59,12.10
2014,07,05,04,00,12.10
2014,07,05,04,01,12.10
2014,07,05,04,02,12.10
2014,07,05,04,03,12.10
2014,07,05,04,04,12.10
2014,07,05,04,05,12.10
2014,07,05,04,06,12.10
2014,07,05,04,07,12.10
2014,07,05,04,08,12.10
2014,07,05,04,09,12.10
2014,07,05,04,10,12.10
2014,07,05,04,11,12.10
2014,07,05,04,12,12.10
2014,07,05,04,13,12.10
2014,07,05,04,14,12.10
2014,07,05,04,15,12.10
2014,07,05,04,16,12.10
2014,07,05,04,17,12.10
2014,07,05,04,18,12.10
2014,07,05,04,19,12.10
2014,07,05,04,20,12.10
2014,07,05,04,21,12.10
2014,07,05,04,22,12.10
2014,07,05,04,23,12.10
2014,07,05,04,24,12.10
2014,07,05,04,25,12.00
2014,07,05,04,26,12.00
2014,07,05,04,27,11.90
2014,07,05,04,28,11.90
2014,07,05,04,29,11.80
2014,07,05,04,30,11.90
2014,07,05,04,31,11.90
2014,07,05,04,32,11.90
2014,07,05,04,33,11.90
2014,07,05,04,34,11.90
2014,07,05,04,35,11.90
2014,07,05,04,36,11.90
2014,07,05,04,37,11.90
2014,07,05,04,38,11.90
2014,07,05,04,39,11.80
2014,07,05,04,40,11.80
2014,07,05,04,41,11.80
2014,07,05,04,42,11.90
2014,07,05,04,43,11.90
2014,07,05,04,44,11.90
2014,07,05,04,45,11.90
2014,07,05,04,46,11.90
2014,07,05,04,47,11.80
2014,07,05,04,48,11.80
2014,07,05,04,49,11.80
2014,07,05,04,50,11.80
2014,07,05,04,51,11.80
2014,07,05,04,52,11.80
2014,07,05,04,53,11.80
2014,07,05,04,54,11.80
2014,07,05,04,55,11.80
2014,07,05,04,56,11.80
2014,07,05,04,57,11.80
2014,07,05,04,58,11.80
2014,07,05,04,59,11.80
2014,07,05,05,00,11.80
2014,07,05,05,01,11.80
2014,07,05,05,02,11.80
2014,07,05,05,03,11.80
2014,07,05,05,04,11.90
2014,07,05,05,05,11.90
2014,07,05,05,06,11.90
2014,07,05,05,07,11.90
2014,07,05,05,08,11.90
2014,07,05,05,09,11.90
2014,07,05,05,10,11.90
2014,07,05,05,11,11.90
2014,07,05,05,12,11.90
2014,07,05,05,13,11.90
2014,07,05,05,14,11.90
2014,07,05,05,15,11.90
2014,07,05,05,16,11.90
2014,07,05,05,17,11.90
2014,07,05,05,18,11.90
2014,07,05,05,19,11.90
2014,07,05,05,20,11.90
2014,07,05,05,21,11.90
2014,07,05,05,22,11.90
2014,07,05,05,23,11.90
2014,07,05,05,24,11.90
2014,07,05,05,25,11.90
2014,07,05,05,26,11.90
2014,07,05,05,27,11.90
2014,07,05,05,28,11.90
2014,07,05,05,29,11.90
2014,07,05,05,30,11.90
2014,07,05,05,31,11.90
2014,07,05,05,32,11.90
2014,07,05,05,33,11.90
2014,07,05,05,34,11.90
2014,07,05,05,35,11.90
2014,07,05,05,36,11.90
2014,07,05,05,37,11.90
2014,07,05,05,38,11.90
2014,07,05,05,39,11.90
2014,07,05,05,40,11.90
2014,07,05,05,41,11.80
2014,07,05,05,42,11.80
2014,07,05,05,43,11.90
2014,07,05,05,44,11.90
2014,07,05,05,45,11.90
2014,07,05,05,46,11.90
2014,07,05,05,47,11.90
2014,07,05,05,48,11.90
2014,07,05,05,49,11.90
2014,07,05,05,50,11.90
2014,07,05,05,51,11.90
2014,07,05,05,52,11.80
2014,07,05,05,53,11.80
2014,07,05,05,54,11.80
2014,07,05,05,55,11.80
2014,07,05,05,56,11.80
2014,07,05,05,57,11.80
2014,07,05,05,58,11.90
2014,07,05,05,59,11.90
2014,07,05,06,00,11.90
2014,07,05,06,01,11.90
2014,07,05,06,02,11.90
2014,07,05,06,03,11.90
2014,07,05,06,04,11.90
2014,07,05,06,05,11.90
2014,07,05,06,06,11.90
2014,07,05,06,07,12.00
2014,07,05,06,08,12.00
2014,07,05,06,09,12.00
2014,07,05,06,10,12.00
2014,07,05,06,11,12.00
2014,07,05,06,12,12.00
2014,07,05,06,13,12.00
2014,07,05,06,14,12.10
2014,07,05,06,15,12.10
2014,07,05,06,16,12.10
2014,07,05,06,17,12.10
2014,07,05,06,18,12.10
2014,07,05,06,19,12.00
2014,07,05,06,20,12.00
2014,07,05,06,21,12.00
2014,07,05,06,22,12.00
2014,07,05,06,23,12.00
2014,07,05,06,24,12.10
2014,07,05,06,25,12.10
2014,07,05,06,26,12.10
2014,07,05,06,27,12.10
2014,07,05,06,28,12.10
2014,07,05,06,29,12.10
2014,07,05,06,30,12.10
2014,07,05,06,31,12.20
2014,07,05,06,32,12.20
2014,07,05,06,33,12.20
2014,07,05,06,34,12.20
2014,07,05,06,35,12.20
2014,07,05,06,36,12.20
2014,07,05,06,37,12.20
2014,07,05,06,38,12.20
2014,07,05,06,39,12.20
2014,07,05,06,40,12.20
2014,07,05,06,41,12.30
2014,07,05,06,42,12.30
2014,07,05,06,43,12.30
2014,07,05,06,44,12.30
2014,07,05,06,45,12.30
2014,07,05,06,46,12.30
2014,07,05,06,47,12.30
2014,07,05,06,48,12.30
2014,07,05,06,49,12.30
2014,07,05,06,50,12.30
2014,07,05,06,51,12.30
2014,07,05,06,52,12.30
2014,07,05,06,53,12.30
2014,07,05,06,54,12.30
2014,07,05,06,55,12.30
2014,07,05,06,56,12.30
2014,07,05,06,57,12.30
2014,07,05,06,58,12.30
2014,07,05,06,59,12.20
2014,07,05,07,00,12.30
2014,07,05,07,01,12.30
2014,07,05,07,02,12.30
2014,07,05,07,03,12.30
2014,07,05,07,04,12.30
2014,07,05,07,05,12.30
2014,07,05,07,06,12.30
2014,07,05,07,07,12.30
2014,07,05,07,08,12.40
2014,07,05,07,09,12.40
2014,07,05,07,10,12.40
2014,07,05,07,11,12.40
2014,07,05,07,12,12.40
2014,07,05,07,13,12.40
2014,07,05,07,14,12.40
2014,07,05,07,15,12.40
2014,07,05,07,16,12.40
2014,07,05,07,17,12.40
2014,07,05,07,18,12.40
2014,07,05,07,19,12.40
2014,07,05,07,20,12.40
2014,07,05,07,21,12.40
2014,07,05,07,22,12.40
2014,07,05,07,23,12.40
2014,07,05,07,24,12.40
2014,07,05,07,25,12.50
2014,07,05,07,26,12.50
2014,07,05,07,27,12.50
2014,07,05,07,28,12.60
2014,07,05,07,29,12.60
2014,07,05,07,30,12.60
2014,07,05,07,31,12.70
2014,07,05,07,32,12.70
2014,07,05,07,33,12.70
2014,07,05,07,34,12.70
2014,07,05,07,35,12.70
2014,07,05,07,36,12.70
2014,07,05,07,37,12.70
2014,07,05,07,38,12.70
2014,07,05,07,39,12.70
2014,07,05,07,40,12.70
2014,07,05,07,41,12.80
2014,07,05,07,42,12.80
2014,07,05,07,43,12.80
2014,07,05,07,44,12.80
2014,07,05,07,45,12.80
2014,07,05,07,46,12.80
2014,07,05,07,47,12.80
2014,07,05,07,48,12.80
2014,07,05,07,49,12.80
2014,07,05,07,50,12.80
2014,07,05,07,51,12.80
2014,07,05,07,52,12.80
2014,07,05,07,53,12.80
2014,07,05,07,54,12.90
2014,07,05,07,55,12.90
2014,07,05,07,56,12.90
2014,07,05,07,57,12.90
2014,07,05,07,58,13.00
2014,07,05,07,59,13.00
2014,07,05,08,00,13.10
2014,07,05,08,01,13.10
2014,07,05,08,02,13.10
2014,07,05,08,03,13.10
2014,07,05,08,04,13.10
2014,07,05,08,05,13.20
2014,07,05,08,06,13.20
2014,07,05,08,07,13.20
2014,07,05,08,08,13.20
2014,07,05,08,09,13.20
2014,07,05,08,10,13.20
2014,07,05,08,11,13.20
2014,07,05,08,12,13.30
2014,07,05,08,13,13.30
2014,07,05,08,14,13.30
2014,07,05,08,15,13.30
2014,07,05,08,16,13.20
2014,07,05,08,17,13.20
2014,07,05,08,18,13.30
2014,07,05,08,19,13.30
2014,07,05,08,20,13.30
2014,07,05,08,21,13.30
2014,07,05,08,22,13.30
2014,07,05,08,23,13.30
2014,07,05,08,24,13.30
2014,07,05,08,25,13.30
2014,07,05,08,26,13.20
2014,07,05,08,27,13.20
2014,07,05,08,28,13.20
2014,07,05,08,29,13.20
2014,07,05,08,30,13.20
2014,07,05,08,31,13.20
2014,07,05,08,32,13.30
2014,07,05,08,33,13.30
2014,07,05,08,34,13.30
2014,07,05,08,35,13.30
2014,07,05,08,36,13.30
2014,07,05,08,37,13.40
2014,07,05,08,38,13.40
2014,07,05,08,39,13.40
2014,07,05,08,40,13.40
2014,07,05,08,41,13.40
2014,07,05,08,42,13.40
2014,07,05,08,43,13.40
2014,07,05,08,44,13.40
2014,07,05,08,45,13.40
2014,07,05,08,46,13.40
2014,07,05,08,47,13.30
2014,07,05,08,48,13.30
2014,07,05,08,49,13.30
2014,07,05,08,50,13.20
2014,07,05,08,51,13.20
2014,07,05,08,52,13.20
2014,07,05,08,53,13.20
2014,07,05,08,54,13.20
2014,07,05,08,55,13.20
2014,07,05,08,56,13.20
2014,07,05,08,57,13.20
2014,07,05,08,58,13.20
2014,07,05,08,59,13.20
2014,07,05,09,00,13.20
2014,07,05,09,01,13.20
2014,07,05,09,02,13.20
2014,07,05,09,03,13.20
2014,07,05,09,04,13.20
2014,07,05,09,05,13.30
2014,07,05,09,06,13.30
2014,07,05,09,07,13.30
2014,07,05,09,08,13.20
2014,07,05,09,09,13.20
2014,07,05,09,10,13.20
2014,07,05,09,11,13.20
2014,07,05,09,12,13.20
2014,07,05,09,13,13.20
2014,07,05,09,14,13.20
2014,07,05,09,15,13.20
2014,07,05,09,16,13.20
2014,07,05,09,17,13.20
2014,07,05,09,18,13.20
2014,07,05,09,19,13.20
2014,07,05,09,20,13.20
2014,07,05,09,21,13.30
2014,07,05,09,22,13.30
2014,07,05,09,23,13.30
2014,07,05,09,24,13.30
2014,07,05,09,25,13.40
2014,07,05,09,26,13.40
2014,07,05,09,27,13.30
2014,07,05,09,28,13.30
2014,07,05,09,29,13.30
2014,07,05,09,30,13.30
2014,07,05,09,31,13.20
2014,07,05,09,32,13.20
2014,07,05,09,33,13.20
2014,07,05,09,34,13.20
2014,07,05,09,35,13.20
2014,07,05,09,36,13.30
2014,07,05,09,37,13.30
2014,07,05,09,38,13.30
2014,07,05,09,39,13.30
2014,07,05,09,40,13.30
2014,07,05,09,41,13.30
2014,07,05,09,42,13.30
2014,07,05,09,43,13.30
2014,07,05,09,44,13.30
2014,07,05,09,45,13.30
2014,07,05,09,46,13.30
2014,07,05,09,47,13.30
2014,07,05,09,48,13.30
2014,07,05,09,49,13.30
2014,07,05,09,50,13.30
2014,07,05,09,51,13.30
2014,07,05,09,52,13.30
2014,07,05,09,53,13.30
2014,07,05,09,54,13.30
2014,07,05,09,55,13.30
2014,07,05,09,56,13.30
2014,07,05,09,57,13.30
2014,07,05,09,58,13.30
2014,07,05,09,59,13.30
2014,07,05,10,00,13.40
2014,07,05,10,01,13.40
2014,07,05,10,02,13.40
2014,07,05,10,03,13.40
2014,07,05,10,04,13.40
2014,07,05,10,05,13.40
2014,07,05,10,06,13.40
2014,07,05,10,07,13.40
2014,07,05,10,08,13.40
2014,07,05,10,09,13.40
2014,07,05,10,10,13.50
2014,07,05,10,11,13.50
2014,07,05,10,12,13.60
2014,07,05,10,13,13.60
2014,07,05,10,14,13.60
2014,07,05,10,15,13.70
2014,07,05,10,16,13.70
2014,07,05,10,17,13.70
2014,07,05,10,18,13.80
2014,07,05,10,19,13.80
2014,07,05,10,20,13.80
2014,07,05,10,21,13.90
2014,07,05,10,22,13.90
2014,07,05,10,23,13.90
2014,07,05,10,24,13.90
2014,07,05,10,25,13.90
2014,07,05,10,26,13.80
2014,07,05,10,27,13.80
2014,07,05,10,28,13.80
2014,07,05,10,29,13.70
2014,07,05,10,30,13.70
2014,07,05,10,31,13.70
2014,07,05,10,32,13.70
2014,07,05,10,33,13.70
2014,07,05,10,34,13.70
2014,07,05,10,35,13.70
2014,07,05,10,36,13.70
2014,07,05,10,37,13.70
2014,07,05,10,38,13.70
2014,07,05,10,39,13.70
2014,07,05,10,40,13.70
2014,07,05,10,41,13.60
2014,07,05,10,42,13.60
2014,07,05,10,43,13.50
2014,07,05,10,44,13.50
2014,07,05,10,45,13.50
2014,07,05,10,46,13.50
2014,07,05,10,47,13.50
2014,07,05,10,48,13.60
2014,07,05,10,49,13.60
2014,07,05,10,50,13.60
2014,07,05,10,51,13.60
2014,07,05,10,52,13.60
2014,07,05,10,53,13.60
2014,07,05,10,54,13.60
2014,07,05,10,55,13.60
2014,07,05,10,56,13.70
2014,07,05,10,57,13.60
2014,07,05,10,58,13.60
2014,07,05,10,59,13.60
2014,07,05,11,00,13.60
2014,07,05,11,01,13.60
2014,07,05,11,02,13.60
2014,07,05,11,03,13.70
2014,07,05,11,04,13.70
2014,07,05,11,05,13.70
2014,07,05,11,06,13.70
2014,07,05,11,07,13.70
2014,07,05,11,08,13.70
2014,07,05,11,09,13.70
2014,07,05,11,10,13.70
2014,07,05,11,11,13.70
2014,07,05,11,12,13.70
2014,07,05,11,13,13.80
2014,07,05,11,14,13.80
2014,07,05,11,15,13.80
2014,07,05,11,16,13.80
2014,07,05,11,17,13.80
2014,07,05,11,18,13.90
2014,07,05,11,19,13.90
2014,07,05,11,20,13.90
2014,07,05,11,21,13.90
2014,07,05,11,22,14.00
2014,07,05,11,23,14.10
2014,07,05,11,24,14.10
2014,07,05,11,25,14.10
2014,07,05,11,26,14.20
2014,07,05,11,27,14.20
2014,07,05,11,28,14.20
2014,07,05,11,29,14.10
2014,07,05,11,30,14.10
2014,07,05,11,31,14.10
2014,07,05,11,32,14.20
2014,07,05,11,33,14.20
2014,07,05,11,34,14.20
2014,07,05,11,35,14.30
2014,07,05,11,36,14.30
2014,07,05,11,37,14.40
2014,07,05,11,38,14.40
2014,07,05,11,39,14.50
2014,07,05,11,40,14.50
2014,07,05,11,41,14.60
2014,07,05,11,42,14.60
2014,07,05,11,43,14.70
2014,07,05,11,44,14.70
2014,07,05,11,45,14.70
2014,07,05,11,46,14.70
2014,07,05,11,47,14.80
2014,07,05,11,48,14.90
2014,07,05,11,49,15.00
2014,07,05,11,50,15.00
2014,07,05,11,51,15.00
2014,07,05,11,52,15.00
2014,07,05,11,53,15.00
2014,07,05,11,54,15.00
2014,07,05,11,55,15.10
2014,07,05,11,56,15.20
2014,07,05,11,57,15.30
2014,07,05,11,58,15.30
2014,07,05,11,59,15.30
2014,07,05,12,00,15.30
2014,07,05,12,01,15.30
2014,07,05,12,02,15.30
2014,07,05,12,03,15.20
2014,07,05,12,04,15.20
2014,07,05,12,05,15.20
2014,07,05,12,06,15.20
2014,07,05,12,07,15.20
2014,07,05,12,08,15.30
2014,07,05,12,09,15.30
2014,07,05,12,10,15.30
2014,07,05,12,11,15.30
2014,07,05,12,12,15.30
2014,07,05,12,13,15.30
2014,07,05,12,14,15.30
2014,07,05,12,15,15.30
2014,07,05,12,16,15.30
2014,07,05,12,17,15.20
2014,07,05,12,18,15.20
2014,07,05,12,19,15.20
2014,07,05,12,20,15.10
2014,07,05,12,21,15.10
2014,07,05,12,22,15.00
2014,07,05,12,23,15.00
2014,07,05,12,24,15.00
2014,07,05,12,25,15.00
2014,07,05,12,26,15.00
2014,07,05,12,27,15.00
2014,07,05,12,28,15.00
2014,07,05,12,29,15.00
2014,07,05,12,30,15.00
2014,07,05,12,31,15.00
2014,07,05,12,32,15.00
2014,07,05,12,33,15.00
2014,07,05,12,34,15.10
2014,07,05,12,35,15.10
2014,07,05,12,36,15.20
2014,07,05,12,37,15.30
2014,07,05,12,38,15.30
2014,07,05,12,39,15.30
2014,07,05,12,40,15.40
2014,07,05,12,41,15.40
2014,07,05,12,42,15.40
2014,07,05,12,43,15.40
2014,07,05,12,44,15.40
2014,07,05,12,45,15.40
2014,07,05,12,46,15.40
2014,07,05,12,47,15.30
2014,07,05,12,48,15.30
2014,07,05,12,49,15.30
2014,07,05,12,50,15.30
2014,07,05,12,51,15.30
2014,07,05,12,52,15.20
2014,07,05,12,53,15.20
2014,07,05,12,54,15.20
2014,07,05,12,55,15.20
2014,07,05,12,56,15.20
2014,07,05,12,57,15.20
2014,07,05,12,58,15.20
2014,07,05,12,59,15.20
2014,07,05,13,00,15.20
2014,07,05,13,01,15.30
2014,07,05,13,02,15.30
2014,07,05,13,03,15.20
2014,07,05,13,04,15.20
2014,07,05,13,05,15.20
2014,07,05,13,06,15.20
2014,07,05,13,07,15.10
2014,07,05,13,08,15.10
2014,07,05,13,09,15.00
2014,07,05,13,10,15.10
2014,07,05,13,11,15.10
2014,07,05,13,12,15.10
2014,07,05,13,13,15.10
2014,07,05,13,14,15.10
2014,07,05,13,15,15.20
2014,07,05,13,16,15.20
2014,07,05,13,17,15.30
2014,07,05,13,18,15.40
2014,07,05,13,19,15.50
2014,07,05,13,20,15.60
2014,07,05,13,21,15.60
2014,07,05,13,22,15.70
2014,07,05,13,23,15.70
2014,07,05,13,24,15.70
2014,07,05,13,25,15.80
2014,07,05,13,26,15.80
2014,07,05,13,27,15.90
2014,07,05,13,28,15.90
2014,07,05,13,29,16.00
2014,07,05,13,30,16.00
2014,07,05,13,31,16.00
2014,07,05,13,32,16.10
2014,07,05,13,33,16.10
2014,07,05,13,34,16.10
2014,07,05,13,35,16.10
2014,07,05,13,36,16.10
2014,07,05,13,37,16.10
2014,07,05,13,38,16.10
2014,07,05,13,39,16.00
2014,07,05,13,40,16.00
2014,07,05,13,41,15.90
2014,07,05,13,42,15.90
2014,07,05,13,43,15.90
2014,07,05,13,44,15.80
2014,07,05,13,45,15.80
2014,07,05,13,46,15.70
2014,07,05,13,47,15.60
2014,07,05,13,48,15.60
2014,07,05,13,49,15.50
2014,07,05,13,50,15.50
2014,07,05,13,51,15.40
2014,07,05,13,52,15.40
2014,07,05,13,53,15.30
2014,07,05,13,54,15.30
2014,07,05,13,55,15.30
2014,07,05,13,56,15.30
2014,07,05,13,57,15.30
2014,07,05,13,58,15.30
2014,07,05,13,59,15.30
2014,07,05,14,00,15.30
2014,07,05,14,01,15.30
2014,07,05,14,02,15.30
2014,07,05,14,03,15.40
2014,07,05,14,04,15.40
2014,07,05,14,05,15.40
2014,07,05,14,06,15.40
2014,07,05,14,07,15.40
2014,07,05,14,08,15.40
2014,07,05,14,09,15.50
2014,07,05,14,10,15.50
2014,07,05,14,11,15.50
2014,07,05,14,12,15.40
2014,07,05,14,13,15.40
2014,07,05,14,14,15.40
2014,07,05,14,15,15.30
2014,07,05,14,16,15.30
2014,07,05,14,17,15.20
2014,07,05,14,18,15.20
2014,07,05,14,19,15.20
2014,07,05,14,20,15.20
2014,07,05,14,21,15.20
2014,07,05,14,22,15.20
2014,07,05,14,23,15.20
2014,07,05,14,24,15.20
2014,07,05,14,25,15.20
2014,07,05,14,26,15.20
2014,07,05,14,27,15.20
2014,07,05,14,28,15.30
2014,07,05,14,29,15.30
2014,07,05,14,30,15.30
2014,07,05,14,31,15.30
2014,07,05,14,32,15.40
2014,07,05,14,33,15.40
2014,07,05,14,34,15.40
2014,07,05,14,35,15.50
2014,07,05,14,36,15.50
2014,07,05,14,37,15.50
2014,07,05,14,38,15.60
2014,07,05,14,39,15.60
2014,07,05,14,40,15.60
2014,07,05,14,41,15.60
2014,07,05,14,42,15.60
2014,07,05,14,43,15.70
2014,07,05,14,44,15.70
2014,07,05,14,45,15.70
2014,07,05,14,46,15.70
2014,07,05,14,47,15.80
2014,07,05,14,48,15.80
2014,07,05,14,49,15.90
2014,07,05,14,50,15.90
2014,07,05,14,51,16.00
2014,07,05,14,52,16.00
2014,07,05,14,53,16.10
2014,07,05,14,54,16.10
2014,07,05,14,55,16.20
2014,07,05,14,56,16.20
2014,07,05,14,57,16.20
2014,07,05,14,58,16.30
2014,07,05,14,59,16.30
2014,07,05,15,00,16.30
2014,07,05,15,01,16.40
2014,07,05,15,02,16.40
2014,07,05,15,03,16.40
2014,07,05,15,04,16.50
2014,07,05,15,05,16.50
2014,07,05,15,06,16.50
2014,07,05,15,07,16.50
2014,07,05,15,08,16.50
2014,07,05,15,09,16.50
2014,07,05,15,10,16.60
2014,07,05,15,11,16.60
2014,07,05,15,12,16.60
2014,07,05,15,13,16.60
2014,07,05,15,14,16.60
2014,07,05,15,15,16.60
2014,07,05,15,16,16.70
2014,07,05,15,17,16.70
2014,07,05,15,18,16.70
2014,07,05,15,19,16.80
2014,07,05,15,20,16.80
2014,07,05,15,21,16.80
2014,07,05,15,22,16.90
2014,07,05,15,23,16.90
2014,07,05,15,24,16.90
2014,07,05,15,25,17.00
2014,07,05,15,26,17.00
2014,07,05,15,27,17.10
2014,07,05,15,28,17.10
2014,07,05,15,29,17.10
2014,07,05,15,30,17.10
2014,07,05,15,31,17.10
2014,07,05,15,32,17.10
2014,07,05,15,33,17.10
2014,07,05,15,34,17.00
2014,07,05,15,35,17.00
2014,07,05,15,36,16.90
2014,07,05,15,37,16.90
2014,07,05,15,38,16.90
2014,07,05,15,39,16.90
2014,07,05,15,40,16.80
2014,07,05,15,41,16.80
2014,07,05,15,42,16.80
2014,07,05,15,43,16.70
2014,07,05,15,44,16.70
2014,07,05,15,45,16.70
2014,07,05,15,46,16.70
2014,07,05,15,47,16.60
2014,07,05,15,48,16.60
2014,07,05,15,49,16.60
2014,07,05,15,50,16.60
2014,07,05,15,51,16.50
2014,07,05,15,52,16.50
2014,07,05,15,53,16.50
2014,07,05,15,54,16.50
2014,07,05,15,55,16.40
2014,07,05,15,56,16.40
2014,07,05,15,57,16.40
2014,07,05,15,58,16.40
2014,07,05,15,59,16.40
2014,07,05,16,00,16.40
2014,07,05,16,01,16.40
2014,07,05,16,02,16.40
2014,07,05,16,03,16.40
2014,07,05,16,04,16.30
2014,07,05,16,05,16.30
2014,07,05,16,06,16.30
2014,07,05,16,07,16.30
2014,07,05,16,08,16.30
2014,07,05,16,09,16.40
2014,07,05,16,10,16.40
2014,07,05,16,11,16.40
2014,07,05,16,12,16.40
2014,07,05,16,13,16.40
2014,07,05,16,14,16.50
2014,07,05,16,15,16.50
2014,07,05,16,16,16.50
2014,07,05,16,17,16.50
2014,07,05,16,18,16.50
2014,07,05,16,19,16.60
2014,07,05,16,20,16.60
2014,07,05,16,21,16.60
2014,07,05,16,22,16.70
2014,07,05,16,23,16.70
2014,07,05,16,24,16.60
2014,07,05,16,25,16.70
2014,07,05,16,26,16.70
2014,07,05,16,27,16.70
2014,07,05,16,28,16.70
2014,07,05,16,29,16.70
2014,07,05,16,30,16.70
2014,07,05,16,31,16.70
2014,07,05,16,32,16.70
2014,07,05,16,33,16.70
2014,07,05,16,34,16.70
2014,07,05,16,35,16.80
2014,07,05,16,36,16.80
2014,07,05,16,37,16.80
2014,07,05,16,38,16.80
2014,07,05,16,39,16.80
2014,07,05,16,40,16.80
2014,07,05,16,41,16.80
2014,07,05,16,42,16.80
2014,07,05,16,43,16.80
2014,07,05,16,44,16.90
2014,07,05,16,45,16.80
2014,07,05,16,46,16.80
2014,07,05,16,47,16.80
2014,07,05,16,48,16.70
2014,07,05,16,49,16.70
2014,07,05,16,50,16.70
2014,07,05,16,51,16.70
2014,07,05,16,52,16.60
2014,07,05,16,53,16.60
2014,07,05,16,54,16.60
2014,07,05,16,55,16.60
2014,07,05,16,56,16.60
2014,07,05,16,57,16.60
2014,07,05,16,58,16.50
2014,07,05,16,59,16.50
2014,07,05,17,00,16.50
2014,07,05,17,01,16.50
2014,07,05,17,02,16.60
2014,07,05,17,03,16.60
2014,07,05,17,04,16.60
2014,07,05,17,05,16.60
2014,07,05,17,06,16.60
2014,07,05,17,07,16.60
2014,07,05,17,08,16.60
2014,07,05,17,09,16.60
2014,07,05,17,10,16.60
2014,07,05,17,11,16.60
2014,07,05,17,12,16.60
2014,07,05,17,13,16.60
2014,07,05,17,14,16.60
2014,07,05,17,15,16.60
2014,07,05,17,16,16.60
2014,07,05,17,17,16.70
2014,07,05,17,18,16.70
2014,07,05,17,19,16.70